Hamadan, Iran

9:56 PM +0430 on May 23, 2017 (GMT +0430)
Hamadan

Weather History for OIHH - February, 2013

Change the Weather History Date:

Monday, February 4, 2013

  Actual Average Record
Temperature  
Mean Temperature 34 °F -  
Max Temperature 53 °F - - ()
Min Temperature 15 °F - - ()
Degree Days  
Heating Degree Days 31    
Moisture  
Dew Point 17 °F    
Average Humidity 62    
Maximum Humidity 86    
Minimum Humidity 28    
Precipitation  
Precipitation 0.00 in - - ()
Sea Level Pressure  
Sea Level Pressure 30.28 in    
Wind  
Wind Speed 1 mph ()    
Max Wind Speed 5 mph    
Max Gust Speed -    
T = Trace of Precipitation, MM = Missing Value Source: Averaged Metar Reports

Daily Weather History Graph

Daily Weather History Graph

Search for Another Location

Airport or City:

Trip Planner

Search our weather history database for the weather conditions in past years. The results will help you decide how hot, cold, wet, or windy it might be!

Date:

Astronomy

Feb. 04, 2013 Rise Set
Actual Time 7:12 AM +0330 5:47 PM +0330
Civil Twilight 6:45 AM +0330 6:14 PM +0330
Nautical Twilight 6:15 AM +0330 6:44 PM +0330
Astronomical Twilight 5:45 AM +0330 7:13 PM +0330
Moon 1:19 AM +0330 (2/4) 11:55 AM +0330 (2/4)
Length of Visible Light 11h 28m
Length of Day
10h 35m
Last Quarter, 41% of the Moon is Illuminated
Feb 4
Last Quarter
Feb 10
New
Feb 18
First Quarter
Feb 25
Full
Mar 5
Last Quarter

Hourly Weather History & Observations

Time (+0330) Temp. Windchill Dew Point Humidity Pressure Visibility Wind Dir Wind Speed Gust Speed Precip Events Conditions
12:30 AM 19.4 °F - 14.0 °F 80% 30.30 in - Calm Calm - N/A   Clear
1:30 AM 17.6 °F - 12.2 °F 79% 30.30 in - Calm Calm - N/A   Clear
2:30 AM 17.6 °F - 12.2 °F 79% 30.30 in - Calm Calm - N/A   Clear
3:30 AM 17.6 °F - 12.2 °F 79% 30.27 in - Calm Calm - N/A   Clear
4:30 AM 15.8 °F - 10.4 °F 79% 30.27 in - Calm Calm - N/A   Clear
5:30 AM 15.8 °F - 12.2 °F 86% 30.27 in - Calm Calm - N/A   Clear
6:30 AM 17.6 °F - 12.2 °F 79% 30.27 in - Calm Calm - N/A   Clear
7:30 AM 19.4 °F 12.8 °F 12.2 °F 74% 30.30 in - SSE 4.6 mph - N/A   Clear
8:30 AM 24.8 °F 19.1 °F 15.8 °F 69% 30.30 in - North 4.6 mph - N/A   Clear
9:30 AM 32.0 °F - 17.6 °F 55% 30.30 in - Calm Calm - N/A   Clear
10:30 AM 37.4 °F - 19.4 °F 48% 30.30 in - Calm Calm - N/A   Clear
11:30 AM 41.0 °F 38.0 °F 12.2 °F 31% 30.30 in - NNE 4.6 mph - N/A   Clear
12:30 PM 42.8 °F 40.1 °F 14.0 °F 31% 30.27 in - NNW 4.6 mph - N/A   Clear
2:30 PM 50.0 °F - 19.4 °F 30% 30.21 in - North 4.6 mph - N/A   Clear
3:30 PM 53.6 °F - 21.2 °F 28% 30.21 in - North 4.6 mph - N/A   Clear
4:30 PM 51.8 °F - 21.2 °F 30% 30.24 in - NNW 4.6 mph - N/A   Clear
5:30 PM 50.0 °F - 21.2 °F 32% 30.24 in - North 4.6 mph - N/A   Clear
6:30 PM 41.0 °F 38.0 °F 21.2 °F 45% 30.27 in - SSW 4.6 mph - N/A   Clear
7:30 PM 33.8 °F 29.6 °F 21.2 °F 60% 30.27 in - SE 4.6 mph - N/A   Clear
8:30 PM 30.2 °F - 21.2 °F 69% 30.27 in - Calm Calm - N/A   Clear
9:30 PM 26.6 °F - 21.2 °F 80% 30.30 in - Calm Calm - N/A   Clear
10:30 PM 23.0 °F - 19.4 °F 86% 30.30 in - Calm Calm - N/A   Clear
11:30 PM 23.0 °F - 19.4 °F 86% 30.30 in - Calm Calm - N/A   Clear